Retour au catalogue

FENGYUN 1C DEB

ActifPO
NORAD 31773·DEBRIS·🇨🇳 China

Lancé May 10, 1999 depuis Taiyuan Satellite Launch Center

Loading…

Prochains Passages (prochaines 24 heures)

TLE

FraisSource: Space-Track

Époque: Sep 13, 2026, 07:14 UTC

1 31773U 99025CFY 26256.30174844  .00007367  00000-0  97549-3 0  9998
2 31773  98.9476 281.9618 0035435  42.1861 318.2065 14.79817501692277

Suivez FENGYUN 1C DEB en temps réel avec AllMySat

Download on the App Store